Wind_Speed
18 18 18 18 18 18 18 18 18 19 19 19 20 20 20 21 22 22 22 22 22 23 23 23 23 23 24 25 26 27 29 30 31 32 33 33 33 34 35 35 36 36 36 36 35 35 35 35 35 35 35 35
18 18 18 18 18 18 18 18 18 18 19 19 20 20 21 22 22 22 21 22 22 22 23 23 23 24 25 27 28 29 30 31 32 32 33 34 34 34 35 36 36 36 36 36 36 36 36 36 36 36 36 36
17 17 17 17 17 17 18 18 18 18 19 19 20 21 21 21 21 21 21 22 22 22 23 23 25 26 27 28 29 30 31 31 32 32 32 33 33 34 34 34 35 35 35 35 35 36 36 36 37 36 36 36
17 17 17 17 17 17 17 18 18 18 19 19 20 20 20 20 20 20 21 21 21 22 23 24 25 26 27 28 29 30 30 31 31 31 32 32 32 33 33 33 34 34 34 34 34 35 36 36 36 36 36 35
16 16 17 17 17 17 17 17 18 18 18 19 19 19 19 19 19 19 20 20 21 22 23 24 25 26 27 28 29 29 30 30 30 31 31 31 31 32 32 32 33 33 34 34 34 35 35 36 36 36 35 35
16 16 16 16 17 17 17 17 17 17 18 18 18 17 18 18 18 19 20 20 21 22 23 25 26 27 28 28 29 29 29 29 29 30 30 30 31 31 32 32 32 32 33 33 34 35 35 35 36 35 35 34
16 16 16 16 16 16 17 16 16 17 17 17 16 16 17 17 18 19 20 21 22 23 24 25 26 27 27 28 28 28 28 28 29 29 29 30 30 31 31 31 31 31 32 33 33 34 35 35 35 35 35 34
16 16 16 16 16 16 16 15 15 15 15 15 15 15 15 16 18 19 20 21 22 23 24 25 26 26 27 27 27 28 28 28 28 28 29 29 29 30 30 30 30 30 31 32 33 33 34 34 35 35 35 34
15 15 15 15 15 15 14 14 14 14 13 13 14 14 15 16 17 18 19 20 22 23 24 25 25 26 26 27 27 27 28 28 28 28 29 29 29 29 29 29 29 30 30 31 32 33 33 34 34 34 34 34
14 14 14 13 13 13 13 13 12 12 12 12 13 14 15 16 17 18 19 20 21 23 23 24 25 26 26 27 27 28 28 29 29 29 29 29 29 29 29 30 30 30 31 31 32 32 33 33 33 34 33 33
13 13 13 12 12 12 12 11 11 11 11 12 13 14 15 16 17 18 19 21 22 23 23 24 25 25 26 27 27 28 28 29 29 30 30 30 31 31 31 31 31 31 31 31 32 32 32 32 33 33 33 33
12 12 12 12 11 11 10 10 10 11 11 12 14 15 16 17 18 19 20 21 22 22 23 23 24 25 26 27 27 28 29 29 30 31 31 32 32 32 33 33 33 32 32 31 31 31 31 31 31 32 32 32
11 11 11 11 10 10 9 10 10 11 12 13 14 16 16 17 18 19 20 21 22 22 23 24 25 26 27 28 28 29 30 30 30 31 31 32 32 33 33 33 33 33 32 32 31 31 31 31 31 32 32 32
11 10 10 10 9 9 9 10 11 12 13 14 16 17 17 18 19 20 20 21 22 23 24 25 25 27 28 29 29 30 30 31 31 31 31 31 32 32 33 33 33 33 32 32 31 31 31 31 31 31 32 32
10 10 10 10 9 9 9 10 12 13 14 16 17 17 18 19 19 20 21 22 23 24 25 26 27 27 28 29 30 30 30 30 30 31 31 31 31 31 32 32 32 32 32 32 31 31 31 31 31 31 31 31
10 10 10 10 9 10 10 11 13 14 15 16 17 18 19 20 21 22 23 23 24 25 26 26 27 27 28 29 29 29 29 29 30 30 30 30 31 31 31 32 32 32 33 33 32 32 31 31 32 31 31 32
11 11 10 10 10 11 11 13 14 15 16 17 18 19 20 20 21 22 23 24 24 25 25 26 26 27 27 28 28 28 29 29 29 29 29 30 30 31 31 32 32 33 34 34 34 34 33 33 33 33 32 32
11 11 11 11 11 12 12 14 15 16 17 17 18 19 19 20 21 22 23 23 24 24 25 26 26 26 27 27 28 29 29 29 30 30 30 30 31 31 32 32 33 33 33 34 35 35 35 34 34 34 33 33
12 12 12 12 12 12 13 14 15 15 16 17 18 18 19 20 21 21 22 23 24 24 25 25 26 27 27 28 29 29 30 30 30 31 31 32 32 32 33 33 34 34 34 35 35 36 36 35 34 34 34 34
13 13 12 12 12 12 13 14 14 15 16 17 18 18 19 20 21 21 22 23 24 24 25 26 26 27 28 28 29 30 31 31 31 32 32 33 33 33 33 34 35 35 36 36 35 36 36 35 35 34 34 35
14 13 13 13 13 13 13 14 14 15 16 17 17 18 19 20 21 22 22 23 24 24 25 26 27 28 28 29 30 31 31 32 32 33 33 33 33 34 33 34 35 36 37 37 37 37 36 36 35 35 35 35
15 14 13 13 13 13 14 14 15 15 16 17 18 18 19 20 21 22 23 23 24 25 26 27 27 28 29 30 31 31 32 32 33 33 34 34 34 34 35 35 35 36 37 38 38 38 38 37 36 36 36 35
16 15 15 14 14 14 15 15 15 16 17 17 18 19 20 21 22 23 23 24 25 26 27 27 28 29 30 31 31 32 32 32 33 33 34 34 34 34 35 35 36 36 37 38 39 39 40 40 38 37 36 35
17 17 16 16 15 15 15 16 16 17 18 18 18 19 20 21 22 23 24 25 26 26 27 28 29 29 30 31 32 32 32 32 33 33 34 34 34 34 34 35 35 35 36 37 38 39 40 40 40 38 37 36
18 18 18 17 16 16 16 16 16 16 18 19 20 20 21 22 23 24 25 26 27 27 28 29 29 30 31 31 32 33 33 33 34 34 34 34 34 35 35 35 35 35 36 36 37 37 38 39 40 39 38 37
20 20 19 18 17 17 18 18 18 18 18 19 20 21 22 23 23 24 25 26 27 28 29 30 30 31 31 32 33 34 34 35 35 35 35 35 35 36 36 36 37 37 37 38 38 38 37 38 39 39 39 39
21 21 21 20 19 19 19 19 20 20 20 20 20 21 22 24 24 25 26 27 28 29 30 30 31 32 32 33 34 34 35 35 36 36 36 36 36 37 37 37 37 38 39 39 39 39 39 38 38 38 39 40
23 22 22 22 21 21 21 21 21 21 22 22 22 23 24 25 26 27 27 28 29 30 30 31 32 33 34 34 35 35 35 36 37 37 37 37 38 38 38 37 37 39 40 40 40 40 39 39 39 39 39 39
24 24 24 23 23 22 22 22 23 22 22 22 23 23 24 25 27 28 28 29 30 31 31 32 32 33 34 35 36 36 36 37 37 38 38 39 39 39 39 39 39 39 41 41 40 39 39 39 40 40 40 40
25 25 25 25 25 24 23 23 24 24 23 23 23 23 23 24 26 27 29 29 30 31 32 32 33 34 35 35 36 37 37 37 38 39 39 40 40 40 40 40 40 40 41 42 40 39 38 39 40 40 41 42
26 27 27 27 27 26 25 25 25 25 25 25 25 26 26 26 27 28 29 30 31 31 32 33 34 34 35 36 37 37 38 38 39 39 40 40 41 41 40 41 41 41 42 42 41 39 38 38 39 40 41 42
Wind_Direction
331 331 331 332 333 335 337 338 340 343 344 345 346 347 347 349 352 353 351 352 353 354 355 355 355 355 356 358 359 359 358 357 357 356 354 353 352 351 350 350 349 348 347 345 344 342 341 341 340 339 338 337
330 330 332 334 334 336 338 340 343 345 345 346 348 349 351 353 354 353 353 356 357 357 357 357 358 359 1 2 2 1 360 358 358 357 355 353 352 352 351 350 349 347 346 344 343 342 341 340 340 339 338 336
330 332 333 334 335 338 339 342 345 346 347 348 351 352 354 354 354 356 358 359 358 358 359 360 1 2 4 4 3 2 1 359 358 357 356 354 353 352 351 350 348 346 345 343 342 341 340 339 338 337 336 334
332 334 335 335 337 339 341 344 347 347 349 351 354 354 355 356 358 360 0 0 0 1 1 2 3 4 5 4 4 3 2 0 359 358 356 355 354 352 351 350 348 346 344 343 342 340 339 338 336 335 334 333
334 335 335 336 338 340 343 346 348 349 352 355 355 355 358 360 1 1 1 2 2 3 3 3 5 6 5 5 4 3 2 0 359 358 357 355 354 353 352 351 349 347 345 344 343 341 339 337 336 334 333 332
333 334 334 336 340 343 346 348 349 352 355 356 356 358 1 2 2 3 3 2 3 3 3 5 6 6 5 4 3 2 1 359 358 357 356 355 355 354 353 352 350 348 347 345 344 342 340 338 336 335 334 332
332 334 334 338 343 345 348 349 351 355 356 357 358 0 2 3 3 3 3 2 3 3 3 5 5 4 3 2 1 360 358 357 356 356 355 355 355 354 353 352 351 349 348 346 345 343 341 339 337 336 335 334
332 334 337 341 345 347 349 350 353 356 357 358 360 1 3 4 4 4 3 2 2 2 3 3 2 2 0 359 358 356 355 354 354 354 354 353 353 353 352 351 351 350 349 347 346 344 342 340 339 338 337 336
332 336 340 343 345 347 348 351 354 356 357 359 0 3 5 5 5 4 3 1 1 1 1 0 359 359 357 356 354 353 352 351 351 351 352 351 351 350 350 350 351 351 350 348 346 345 344 342 341 339 338 337
333 338 340 343 345 346 348 351 356 357 358 360 1 4 5 6 5 3 2 1 1 360 359 358 356 355 354 353 351 350 349 349 349 349 350 349 348 347 347 349 350 350 349 348 347 345 344 342 341 340 340 339
334 337 339 342 344 345 348 352 355 357 357 358 1 3 4 4 3 1 360 360 359 358 357 355 354 352 351 350 349 348 348 348 348 348 348 347 346 346 346 347 347 348 348 347 346 344 343 342 342 341 341 340
333 334 337 339 340 342 346 349 351 353 354 356 359 1 2 2 0 358 358 358 358 356 354 353 351 350 349 348 348 347 348 347 347 348 347 346 346 345 345 345 345 345 345 345 344 342 341 341 342 342 342 342
329 331 334 334 334 337 340 343 347 349 352 355 357 358 359 358 357 355 355 355 355 354 352 352 351 349 348 347 347 348 347 347 347 347 346 345 344 344 343 343 343 343 342 342 341 340 340 340 341 342 342 342
323 326 327 326 327 329 333 338 343 348 351 354 356 356 356 354 353 353 353 352 353 352 352 351 350 349 348 347 347 347 346 345 345 345 344 344 343 343 342 341 341 340 339 339 338 338 339 340 341 341 341 340
317 319 318 318 320 323 330 338 344 349 352 354 354 354 352 350 350 350 350 351 351 351 351 351 349 348 347 346 346 345 344 343 343 343 342 342 341 340 340 340 339 337 337 336 336 338 339 339 339 340 339 338
312 312 311 312 316 323 334 342 347 350 351 352 352 351 350 348 348 348 348 349 349 350 349 349 347 346 345 344 343 342 341 341 341 341 340 339 338 339 339 338 337 336 336 336 337 339 340 339 339 339 338 337
307 306 307 311 318 328 337 344 347 349 350 350 349 348 346 345 345 345 346 346 347 347 346 346 345 343 342 341 340 339 339 339 339 338 337 338 338 338 338 338 338 337 337 336 338 339 339 340 339 338 338 335
303 304 307 313 323 331 338 343 345 346 347 346 346 344 342 342 342 342 343 343 343 344 343 343 341 341 340 339 338 338 338 337 337 336 336 337 338 338 338 338 338 337 337 337 337 338 338 339 339 337 336 333
302 304 309 316 324 331 336 340 341 342 342 342 341 340 338 338 338 339 340 340 340 340 340 339 338 338 338 337 337 337 336 336 336 336 336 336 337 337 336 336 337 337 338 338 336 336 336 338 337 335 333 332
302 304 308 315 321 327 331 334 336 337 337 338 337 337 336 335 335 336 336 336 336 336 336 336 336 336 336 336 336 335 335 335 335 335 335 335 334 333 333 334 336 337 337 337 336 334 334 335 335 333 332 332
300 303 307 312 317 322 326 329 331 332 333 334 333 333 333 332 332 332 333 333 332 333 333 333 333 334 334 334 334 335 334 334 333 333 333 332 331 331 331 332 334 335 335 334 334 333 332 332 332 331 332 331
299 303 306 310 314 318 322 324 326 327 328 329 330 330 331 330 330 330 330 330 330 330 331 331 331 332 332 332 333 333 332 332 332 331 330 329 328 329 329 330 331 331 331 331 331 331 330 330 330 331 331 330
302 304 307 309 312 315 317 320 322 323 324 325 327 328 328 328 328 328 328 328 328 328 329 330 330 330 330 330 330 330 330 330 330 328 327 326 326 327 327 328 329 329 328 328 328 328 328 328 328 329 328 327
303 306 307 308 310 313 314 316 319 320 322 323 324 326 326 327 327 328 328 327 328 328 328 329 329 329 329 328 327 327 327 328 327 325 323 323 323 324 324 325 325 325 325 325 325 326 326 325 325 325 324 323
304 305 306 307 308 310 311 312 314 316 318 319 322 324 325 326 327 327 327 327 327 327 327 328 328 327 327 326 326 325 326 325 323 322 321 321 321 321 322 322 322 322 322 322 322 322 322 322 322 322 322 322
302 304 305 307 308 311 312 313 314 316 317 318 320 322 323 324 325 325 326 326 326 326 326 326 326 326 326 325 325 324 324 323 320 319 319 319 319 320 320 320 320 321 320 320 320 320 320 319 320 320 321 322
299 301 303 308 311 313 314 314 315 316 317 317 319 320 321 322 323 324 325 325 325 325 324 325 324 324 324 324 323 323 321 320 318 317 317 317 317 317 318 318 319 319 319 319 319 319 319 318 318 318 319 320
297 299 302 306 311 313 314 314 314 315 317 318 319 321 321 321 322 323 323 323 323 323 322 323 323 322 322 322 321 321 319 318 317 316 315 315 315 316 316 317 317 317 317 317 317 317 317 317 317 317 318 319
296 298 301 305 309 312 314 315 315 315 314 314 315 316 317 318 319 320 321 321 321 321 321 321 321 321 320 320 319 319 318 316 316 315 314 314 313 314 314 315 316 316 315 315 315 316 316 315 315 316 316 316
296 298 300 303 306 309 311 313 313 312 311 311 312 313 314 315 316 317 318 319 319 319 319 319 319 319 318 318 317 316 315 315 315 314 313 313 312 312 312 313 314 314 314 313 313 314 314 313 313 314 314 313
297 298 300 302 304 306 308 311 312 312 313 313 313 314 314 315 316 317 317 318 318 317 317 317 318 317 317 316 315 314 314 313 313 312 312 311 310 310 311 311 312 313 312 311 311 311 311 311 311 311 312 312
Height
3164 3163 3161 3160 3159 3157 3156 3154 3152 3151 3149 3148 3146 3144 3143 3141 3139 3138 3136 3135 3133 3131 3130 3128 3127 3125 3124 3122 3119 3117 3115 3113 3111 3109 3107 3106 3104 3102 3100 3098 3096 3094 3092 3091 3089 3087 3085 3083 3081 3079 3077 3075
3163 3161 3160 3159 3157 3156 3154 3153 3151 3149 3148 3146 3145 3143 3141 3140 3138 3137 3135 3133 3132 3130 3129 3127 3126 3124 3121 3119 3116 3114 3112 3110 3109 3107 3106 3104 3102 3100 3098 3096 3095 3093 3091 3089 3087 3085 3083 3080 3078 3077 3075 3073
3161 3160 3159 3157 3156 3154 3152 3151 3149 3148 3146 3145 3143 3141 3140 3139 3137 3135 3134 3132 3131 3130 3128 3126 3123 3121 3119 3116 3114 3113 3111 3109 3108 3107 3105 3104 3101 3099 3097 3095 3094 3092 3090 3088 3086 3083 3081 3078 3077 3075 3073 3072
3160 3158 3157 3156 3154 3153 3151 3150 3148 3147 3145 3144 3142 3140 3139 3138 3136 3134 3133 3132 3130 3128 3126 3124 3122 3119 3117 3115 3113 3112 3110 3109 3107 3106 3104 3102 3100 3098 3096 3094 3092 3090 3088 3086 3084 3082 3079 3077 3075 3074 3072 3070
3158 3157 3156 3154 3153 3151 3150 3149 3147 3146 3144 3143 3141 3140 3138 3137 3135 3134 3132 3131 3129 3127 3125 3123 3120 3118 3116 3114 3112 3111 3109 3108 3106 3105 3103 3101 3099 3097 3095 3093 3091 3089 3087 3085 3082 3080 3078 3076 3074 3073 3071 3069
3157 3156 3154 3153 3152 3150 3149 3148 3147 3145 3143 3142 3141 3139 3138 3136 3135 3133 3131 3129 3127 3125 3123 3121 3119 3116 3115 3113 3111 3110 3108 3107 3105 3103 3102 3099 3097 3095 3093 3092 3090 3088 3086 3083 3081 3079 3077 3075 3073 3071 3069 3067
3156 3155 3154 3152 3151 3150 3148 3147 3146 3144 3143 3142 3140 3139 3137 3136 3134 3132 3130 3128 3126 3124 3121 3119 3117 3115 3114 3112 3111 3109 3108 3106 3104 3102 3100 3098 3095 3093 3092 3090 3089 3086 3084 3082 3080 3078 3076 3074 3072 3070 3068 3066
3155 3154 3153 3151 3150 3149 3148 3146 3145 3143 3142 3141 3140 3138 3137 3135 3133 3131 3128 3126 3124 3122 3120 3118 3116 3115 3113 3112 3110 3109 3107 3105 3103 3101 3099 3096 3094 3092 3091 3089 3087 3085 3082 3080 3078 3076 3074 3072 3070 3068 3066 3064
3154 3153 3152 3151 3149 3148 3147 3146 3144 3143 3142 3140 3139 3137 3135 3133 3131 3129 3127 3125 3123 3121 3119 3117 3116 3114 3113 3111 3109 3108 3106 3104 3101 3099 3097 3095 3093 3092 3090 3088 3085 3083 3081 3079 3077 3075 3073 3071 3069 3067 3064 3062
3153 3152 3151 3150 3149 3147 3146 3144 3143 3142 3141 3139 3138 3136 3134 3132 3130 3128 3126 3124 3122 3120 3118 3116 3114 3113 3111 3110 3108 3106 3104 3102 3100 3097 3095 3093 3092 3090 3088 3086 3083 3081 3079 3077 3075 3073 3071 3069 3067 3065 3063 3061
3152 3151 3150 3148 3147 3146 3145 3143 3142 3141 3139 3138 3136 3134 3132 3130 3128 3126 3125 3122 3120 3118 3117 3115 3113 3112 3110 3108 3106 3104 3102 3100 3098 3095 3093 3091 3090 3088 3085 3083 3081 3079 3077 3075 3073 3071 3070 3068 3066 3064 3061 3059
3151 3149 3148 3147 3146 3145 3144 3142 3141 3140 3138 3136 3134 3132 3130 3128 3127 3125 3123 3121 3119 3117 3116 3114 3112 3110 3108 3107 3104 3102 3100 3098 3095 3093 3091 3089 3087 3085 3083 3081 3079 3077 3076 3074 3072 3071 3069 3067 3064 3062 3059 3057
3149 3148 3147 3146 3145 3144 3143 3141 3140 3138 3137 3135 3133 3130 3128 3127 3125 3123 3122 3120 3118 3116 3115 3113 3111 3109 3106 3104 3102 3100 3097 3095 3093 3091 3089 3087 3085 3083 3081 3080 3078 3076 3074 3073 3071 3069 3067 3065 3062 3059 3057 3055
3148 3147 3146 3145 3144 3143 3142 3140 3138 3137 3135 3133 3131 3129 3127 3125 3124 3122 3120 3118 3117 3115 3113 3111 3109 3106 3104 3102 3100 3098 3096 3094 3092 3090 3088 3086 3084 3082 3080 3078 3076 3075 3073 3072 3070 3068 3065 3062 3060 3057 3055 3053
3147 3146 3145 3144 3143 3142 3140 3138 3137 3135 3133 3131 3129 3127 3125 3123 3122 3120 3118 3117 3115 3113 3111 3108 3107 3105 3103 3101 3099 3097 3095 3093 3091 3088 3086 3085 3083 3081 3079 3078 3076 3074 3073 3071 3069 3066 3063 3061 3058 3056 3054 3051
3146 3145 3144 3143 3142 3140 3138 3136 3134 3133 3131 3129 3127 3125 3123 3122 3120 3118 3116 3114 3113 3111 3109 3107 3105 3104 3102 3100 3098 3096 3094 3092 3090 3088 3086 3084 3082 3080 3078 3076 3074 3072 3070 3068 3066 3064 3061 3058 3056 3054 3052 3049
3145 3144 3143 3142 3140 3138 3136 3134 3132 3130 3129 3127 3125 3123 3122 3120 3118 3116 3115 3113 3111 3109 3108 3106 3105 3103 3101 3099 3097 3095 3093 3091 3089 3087 3085 3083 3080 3078 3076 3074 3072 3070 3067 3065 3062 3060 3058 3056 3053 3051 3049 3047
3144 3143 3141 3140 3138 3136 3134 3132 3130 3129 3127 3125 3124 3122 3121 3119 3117 3115 3113 3111 3110 3108 3107 3105 3103 3102 3100 3098 3095 3093 3091 3089 3087 3085 3082 3080 3078 3075 3073 3071 3069 3067 3064 3062 3059 3057 3055 3053 3051 3049 3047 3045
3142 3141 3140 3138 3136 3134 3133 3131 3129 3127 3126 3124 3123 3121 3119 3117 3116 3114 3112 3110 3108 3107 3105 3103 3102 3100 3097 3095 3093 3091 3088 3086 3084 3081 3079 3076 3074 3072 3070 3068 3066 3064 3061 3059 3056 3054 3053 3051 3049 3046 3044 3042
3141 3140 3138 3137 3135 3133 3131 3129 3128 3126 3124 3123 3121 3119 3118 3116 3114 3112 3110 3108 3107 3105 3103 3101 3099 3097 3095 3092 3090 3088 3086 3083 3081 3078 3076 3073 3071 3070 3068 3066 3063 3060 3058 3056 3054 3052 3050 3049 3046 3044 3042 3040
3140 3138 3136 3135 3133 3131 3130 3128 3126 3124 3123 3121 3119 3118 3116 3114 3112 3111 3109 3107 3105 3103 3101 3099 3096 3094 3092 3089 3087 3085 3082 3080 3078 3075 3073 3071 3069 3067 3065 3063 3060 3058 3055 3053 3052 3050 3048 3046 3044 3042 3039 3037
3138 3136 3134 3133 3131 3129 3128 3126 3124 3123 3121 3119 3118 3116 3114 3112 3110 3109 3106 3104 3102 3100 3098 3096 3094 3091 3089 3087 3084 3082 3080 3077 3075 3073 3071 3069 3067 3064 3062 3059 3057 3055 3053 3051 3049 3047 3045 3043 3041 3039 3037 3035
3136 3134 3132 3131 3129 3127 3126 3124 3122 3121 3119 3118 3116 3114 3112 3110 3108 3106 3104 3102 3100 3098 3096 3093 3091 3089 3086 3084 3082 3080 3077 3075 3073 3071 3069 3067 3065 3062 3059 3057 3054 3052 3050 3048 3047 3044 3042 3039 3038 3036 3034 3032
3134 3132 3131 3129 3127 3125 3124 3122 3121 3119 3117 3115 3114 3112 3110 3108 3106 3104 3102 3100 3098 3095 3093 3091 3088 3086 3084 3082 3080 3078 3075 3073 3071 3069 3067 3065 3062 3060 3057 3055 3052 3050 3048 3046 3044 3042 3039 3036 3035 3034 3032 3030
3132 3130 3129 3127 3125 3123 3122 3120 3119 3117 3115 3113 3111 3110 3108 3106 3104 3102 3099 3097 3095 3093 3091 3088 3086 3084 3082 3079 3077 3075 3073 3071 3069 3067 3065 3062 3060 3057 3055 3052 3050 3048 3046 3044 3042 3040 3038 3035 3032 3030 3028 3026
3130 3129 3127 3125 3123 3121 3119 3117 3116 3114 3113 3111 3109 3107 3105 3103 3101 3099 3097 3095 3092 3090 3088 3086 3083 3081 3079 3077 3075 3072 3070 3068 3066 3064 3062 3059 3057 3054 3052 3049 3046 3044 3042 3040 3038 3036 3034 3032 3029 3027 3024 3022
3128 3127 3125 3123 3121 3118 3116 3115 3113 3111 3110 3108 3107 3105 3102 3100 3098 3096 3094 3092 3090 3087 3085 3083 3081 3078 3076 3074 3072 3070 3068 3066 3064 3061 3059 3056 3053 3051 3049 3047 3044 3041 3039 3036 3034 3031 3029 3027 3025 3023 3021 3019
3126 3125 3123 3121 3118 3116 3114 3112 3110 3108 3106 3104 3103 3101 3099 3097 3095 3093 3091 3089 3087 3085 3083 3081 3078 3076 3074 3071 3069 3067 3065 3063 3061 3058 3055 3053 3050 3048 3046 3044 3041 3038 3035 3033 3031 3028 3025 3023 3021 3019 3017 3016
3124 3122 3120 3118 3116 3114 3111 3109 3107 3106 3104 3102 3100 3099 3097 3095 3092 3090 3088 3086 3084 3082 3080 3078 3076 3073 3071 3068 3066 3064 3062 3060 3057 3054 3052 3050 3047 3044 3042 3039 3038 3036 3032 3030 3027 3025 3022 3019 3016 3015 3013 3011
3122 3120 3118 3116 3114 3112 3109 3107 3105 3103 3101 3099 3097 3096 3094 3093 3090 3088 3085 3083 3081 3079 3077 3075 3073 3070 3068 3065 3063 3061 3058 3056 3053 3051 3048 3046 3044 3041 3038 3035 3034 3032 3029 3026 3024 3022 3019 3016 3013 3010 3009 3007
3119 3117 3115 3113 3111 3109 3107 3105 3102 3100 3098 3096 3094 3092 3090 3089 3087 3085 3082 3080 3078 3076 3074 3071 3069 3067 3064 3062 3059 3057 3055 3052 3050 3047 3045 3043 3040 3038 3035 3032 3029 3028 3026 3023 3020 3018 3015 3013 3010 3007 3005 3002